Lid_Strength_Index
7 7 7 7 7 8 8 9 9 8 8 8 8 7 7 7 7 8 8 8 8 8 7 6 5 5 6 6 7 6 6 5 7 6 4 3 2 2 2 1 1 1 2
8 7 8 8 9 10 9 9 8 8 7 6 6 7 7 7 7 7 8 7 8 8 8 8 7 6 6 6 7 7 7 4 6 7 5 4 3 2 1 1 1 2 2
7 7 8 9 10 10 9 8 7 7 6 6 6 6 6 7 7 7 8 7 8 7 8 8 8 7 6 5 6 7 7 5 5 6 6 4 3 2 2 1 1 1 1
7 8 9 10 10 9 8 8 7 6 6 6 6 6 6 6 7 7 7 7 8 7 7 8 8 7 7 5 6 6 7 6 5 6 6 5 4 3 2 3 2 -0 1
8 8 10 10 9 9 8 7 7 6 6 6 6 5 6 6 7 7 7 7 8 8 7 7 7 7 7 6 5 5 6 7 6 6 6 6 5 4 4 2 2 1 0
8 9 10 10 10 9 8 7 7 7 6 5 5 5 6 6 6 7 7 8 8 8 8 7 7 7 7 7 6 7 6 7 6 6 6 6 5 4 3 2 2 2 3
9 10 11 10 11 9 8 7 7 7 6 6 6 5 6 6 6 6 6 7 8 8 8 7 8 7 6 6 6 7 8 9 10 5 6 5 4 3 2 2 3 2 2
9 10 10 10 11 9 8 8 8 7 6 6 5 5 5 6 5 5 6 6 6 7 7 8 7 6 6 5 4 6 5 7 7 5 4 4 3 3 2 1 2 1 1
10 10 11 10 11 9 9 8 8 7 7 6 5 6 6 7 6 6 6 6 6 7 7 7 7 5 6 5 6 6 6 8 10 8 7 8 8 8 5 2 2 3 3
10 9 10 10 10 8 9 9 7 7 6 6 7 7 7 7 7 7 7 7 7 8 7 7 8 6 7 7 5 5 7 8 7 5 5 6 5 4 9 2 1 3 3
9 8 9 10 10 8 8 8 9 8 7 7 8 8 8 8 8 8 8 7 7 7 8 7 8 7 7 6 6 5 7 7 8 5 4 4 3 2 1 0 0 2 2
8 8 9 9 10 10 8 8 8 9 8 9 9 9 9 8 9 9 9 8 8 8 8 7 7 7 7 7 7 10 11 9 5 5 5 5 6 4 3 2 2 1 1
9 8 8 9 10 10 10 9 9 9 9 10 10 10 9 9 8 9 9 9 9 7 7 7 7 7 8 9 10 11 11 5 6 7 7 8 7 6 4 5 5 5 5
10 9 8 9 11 10 11 10 9 9 9 10 10 10 9 9 8 8 8 9 8 7 8 7 8 9 10 10 9 8 6 6 6 7 8 7 5 6 5 5 7 7 8
11 9 9 8 10 10 11 11 11 10 9 9 9 9 9 9 8 8 9 9 8 8 8 8 8 9 8 8 7 7 7 7 8 8 7 5 4 6 7 6 8 8 8
11 11 10 9 9 10 11 11 11 11 11 11 11 11 10 10 10 10 9 9 10 10 9 10 10 9 9 9 8 9 8 9 7 5 4 4 5 6 7 8 9 9 9
9 12 10 10 9 10 11 12 12 10 11 11 11 11 11 11 11 10 10 11 11 11 10 10 10 9 9 9 9 8 8 6 5 5 5 5 5 7 8 8 10 10 10
8 11 11 10 10 9 10 11 11 12 12 12 11 11 11 11 11 10 11 10 10 10 9 10 11 10 9 8 7 7 6 5 5 4 5 7 7 8 10 9 10 9 10
9 8 10 11 10 10 10 10 11 12 12 12 11 11 11 11 11 11 11 9 10 10 10 10 10 10 7 6 7 7 7 7 6 7 7 8 9 9 10 10 9 10 11
8 11 10 10 11 10 10 10 10 10 10 11 12 12 11 10 10 10 9 8 8 8 8 7 7 6 6 6 7 8 7 8 7 8 8 9 9 9 9 9 9 9 10
7 8 11 9 11 11 11 11 10 11 10 10 11 11 11 11 11 10 9 9 9 9 9 8 6 5 5 5 5 6 7 8 8 8 9 10 11 8 9 10 10 11 10
8 9 9 9 9 11 12 11 11 11 11 11 10 10 11 10 11 11 10 10 10 10 9 9 7 6 5 5 6 7 7 9 8 9 10 10 9 9 9 10 10 10 11
8 8 9 9 10 10 11 11 12 11 12 12 11 11 11 11 11 12 11 11 11 11 11 11 11 10 10 9 9 9 9 8 7 8 9 10 10 9 9 10 10 11 12
9 10 9 10 10 10 10 11 11 12 13 13 12 11 12 12 13 13 12 12 12 12 11 12 12 11 11 11 11 10 10 9 8 10 10 11 10 12 11 11 11 11 12
8 10 10 10 10 11 11 10 11 11 12 12 13 13 12 12 13 13 13 12 13 13 12 12 12 12 12 11 11 11 12 13 12 11 10 11 11 12 12 12 12 12 13
7 8 9 10 11 10 11 11 11 11 12 12 12 12 13 13 13 13 14 14 14 14 13 13 12 13 13 12 11 12 13 13 13 13 12 11 12 12 13 12 13 13 13